User: anonymous   Login
Location: Elstree
(51.6403°N, 0.2969°W)
Time: 16:38:49
(UTC+00:00)
Language:

Cosmos 1536 - Orbit

View from above orbital plane
View from above orbital plane
View from above satellite
View from above satellite

Ground track
Ground track

The orbit data is extracted from the following two-line orbital elements,

1 14699U 84013A   21135.77801918  .00000721  00000-0  47691-4 0  9999
2 14699  82.5285  25.6643 0011701 216.0295 144.0145 15.05806887  6870
Epoch (UTC): 15 May 2021 18:40:20
Eccentricity: 0.0011701
inclination: 82.5285°
perigee height: 541 km
apogee height: 557 km
right ascension of ascending node: 25.6643°
argument of perigee: 216.0295°
revolutions per day: 15.05806887
mean anomaly at epoch: 144.0145°
orbit number at epoch: 687

The dashed part of the orbit path shows where the satellite is in the earth's shadow,  

DLR